Home   Weather   Istanbul   Past weeks
Flag for Turkey

Past Weather in Istanbul, Turkey — Yesterday and Last 2 Weeks

Now
61 °F

Passing clouds.


Feels Like: 61 °F
Forecast: 72 / 61 °F
Wind: 6 mph from North

Location: Istanbul Ataturk Airport

Current Time: May 25, 2019 at 12:21:20 am

Latest Report: May 24, 2019 at 11:20 pm


Visibility: N/A

Pressure: 29.83 "Hg

Humidity: 83%

Dew Point: 55 °F

Location of IstanbulLocation

Past Weather in Istanbul — Graph

°F

Istanbul Temperature Yesterday

Maximum temperature yesterday: 72 °F (at 2:50 pm)
Minimum temperature yesterday: 61 °F (at 10:20 am)
Average temperature yesterday: 66 °F

High & Low Weather Summary for the Past Weeks

 TemperatureHumidityPressure
High81 °F (May 19, 6:20 pm)94% (May 10, 8:50 pm)30.09 "Hg (May 10, 8:50 pm)
Low55 °F (May 12, 2:50 am)37% (May 19, 6:20 pm)29.68 "Hg (May 17, 6:20 pm)
Average67 °F70%29.89 "Hg
* Reported May 9 10:20 pm — May 24 10:50 pm, Istanbul. Weather by CustomWeather, © 2019

Note: Actual official high and low records may vary slightly from our data, if they occured in-between our weather recording intervals... More about our weather records

Advertising

Istanbul Weather History for the Previous 24 Hours

Scroll right to see more
 ConditionsComfort  
Time TempWeatherWind HumidityBarometerVisibility
10:50 pm
Fri, May 24
63 °FPassing clouds.7 mph77%29.83 "HgN/A
10:20 pm63 °FPassing clouds.8 mph83%29.83 "HgN/A
9:50 pm63 °FPassing clouds.9 mph83%29.83 "HgN/A
8:50 pm64 °FClear.7 mph78%29.80 "Hg10 mi
8:20 pm66 °FPassing clouds.6 mph68%29.80 "HgN/A
7:50 pm64 °FPassing clouds.5 mph73%29.80 "HgN/A
7:20 pm66 °FPassing clouds.7 mph68%29.80 "HgN/A
6:50 pm66 °FPassing clouds.8 mph68%29.80 "HgN/A
6:20 pm66 °FSunny.10 mph68%29.80 "Hg10 mi
5:50 pm66 °FSunny.14 mph68%29.80 "Hg10 mi
5:20 pm68 °FScattered clouds.16 mph69%29.80 "HgN/A
4:50 pm70 °FScattered clouds.16 mph64%29.80 "HgN/A
4:20 pm68 °FScattered clouds.16 mph69%29.80 "HgN/A
3:50 pm70 °FScattered clouds.17 mph64%29.80 "HgN/A
3:20 pm70 °FScattered clouds.14 mph69%29.80 "HgN/A
2:50 pm72 °FScattered clouds.10 mph65%29.80 "HgN/A
2:20 pm70 °FScattered clouds.7 mph73%29.80 "HgN/A
1:50 pm70 °FScattered clouds.3 mph64%29.80 "HgN/A
1:20 pm68 °FBroken clouds.2 mph73%29.83 "HgN/A
12:50 pm66 °FPartly sunny.6 mph73%29.83 "HgN/A
12:20 pm66 °FPartly sunny.9 mph78%29.83 "HgN/A
11:50 am66 °FBroken clouds.8 mph78%29.83 "HgN/A
11:20 am66 °FBroken clouds.10 mph83%29.83 "HgN/A
10:50 am63 °FSprinkles. Broken clouds.9 mph94%29.83 "HgN/A
10:20 am61 °FSprinkles. Partly sunny.8 mph94%29.83 "HgN/A
9:50 am63 °FSprinkles. Partly sunny.12 mph83%29.80 "Hg4 mi
9:20 am63 °FSprinkles. Partly sunny.13 mph94%29.80 "Hg4 mi
8:50 am64 °FThunderstorms. Broken clouds.10 mph83%29.83 "Hg2 mi
8:20 am63 °FSprinkles. Broken clouds.13 mph88%29.77 "HgN/A
8:13 am63 °FSprinkles. Broken clouds.12 mph88%29.77 "HgN/A
7:50 am64 °FThunderstorms. Broken clouds.10 mph83%29.74 "HgN/A
7:28 am64 °FThunderstorms. Partly sunny.9 mph78%29.74 "HgN/A
6:50 am64 °FBroken clouds.12 mph83%29.74 "HgN/A
6:38 am64 °FBroken clouds.13 mph83%29.71 "HgN/A
6:20 am64 °FSprinkles. Partly sunny.13 mph83%29.71 "HgN/A
6:05 am63 °FThunderstorms. Broken clouds.13 mph94%29.74 "Hg5 mi
5:50 am63 °FThunderstorms. Partly sunny.9 mph94%29.74 "Hg3 mi
5:28 am63 °FThunderstorms. Passing clouds.18 mph94%29.77 "Hg3 mi
5:16 am64 °FThunderstorms. Passing clouds.17 mph88%29.77 "HgN/A
4:50 am66 °FThunderstorms. Passing clouds.16 mph78%29.71 "HgN/A
4:20 am66 °FThunderstorms. Passing clouds.13 mph83%29.74 "HgN/A
4:13 am64 °FThunderstorms. Passing clouds.14 mph88%29.74 "HgN/A
3:50 am64 °FPartly cloudy.14 mph88%29.77 "HgN/A
3:20 am64 °FClear.14 mph88%29.77 "Hg10 mi
2:50 am64 °FClear.13 mph88%29.77 "Hg10 mi
2:20 am66 °FClear.10 mph83%29.77 "Hg10 mi
1:50 am66 °FPartly cloudy.12 mph88%29.77 "HgN/A
1:20 am66 °FPassing clouds.12 mph83%29.80 "HgN/A
12:50 am70 °FPassing clouds.9 mph78%29.80 "HgN/A
12:20 am68 °FSprinkles. Passing clouds.7 mph83%29.83 "HgN/A
Weather by CustomWeather, © 2019

See weather overview